World > North America > United States > Michigan > Montague   City of Montague, MI

Montague, MI Hourly Weather Updates

Feedback E-mail the Weather

Quick Clicks

Montague, MI Weather Maps

°F °C°F °C
Montague Weather Map
UTC Time: 4/13/2024, 16:42
Your Time:

Montague, MI Regional Weather

Expires:202404131700;;677863
ASUS43 KDTX 131610
RWRMI 
MICHIGAN HOURLY REGIONAL WEATHER ROUNDUP
NATIONAL WEATHER SERVICE DETROIT/PONTIAC MI
ISSUED BY NATIONAL WEATHER SERVICE GRAND RAPIDS MI
1200 PM EDT SAT APR 13 2024

NOTE: "FAIR" INDICATES FEW OR NO CLOUDS BELOW 12,000 FEET WITH NO
SIGNIFICANT WEATHER AND/OR OBSTRUCTION TO VISIBILITY.


MIZ043>046-050>051-056>058-064>065-071>073-077>080-131700-
SOUTHWEST LOWER MICHIGAN
  
CITY           SKY/WX    TMP DP  RH WIND       PRES   REMARKS
BATTLE CREEK   SUNNY     56  32  40 NW15G25   30.05S TC  13           
BENTON HARBOR  SUNNY     53  34  48 VRB7      30.10S TC  12           
BIG RAPIDS     SUNNY     51  27  39 NW13G20   29.99F TC  11           
COLDWATER      SUNNY     55  32  41 NW16G25   30.06S TC  13           
HOLLAND        SUNNY     50  32  50 NW14      30.08R TC  10           
GRAND RAPIDS   SUNNY     52  33  48 W12       30.03F TC  11           
KALAMAZOO      SUNNY     58  32  37 NW17G26   30.07S TC  14           
MARSHALL       SUNNY     55  30  38 W16G24    30.04S TC  13           
MOUNT PLEASANT SUNNY     51  27  39 W12G20    29.98S TC  11           
MUSKEGON       SUNNY     51  32  48 W16G24    30.07R TC  11           
SOUTH HAVEN    SUNNY     51  34  52 W7        30.09S TC  11           
STURGIS        SUNNY     56  31  38 NW14G22   30.07S TC  13           
$$

SKY/WX - Weather  TMP - Temperature  DP - Dew Point  RH - Humidity
WIND - Wind Direction/Speed PRES - Barometric Pressure VSB - Visibility
WCI - Wind Chill Index E13G22 Wind - East Wind 13 mph/Gusts of 22 mph

Trending Headlines

Trending Entertainment Headlines

Montague Radar Loop

Use the map search tool if you want to place a location marker on the radar map...

Montague Quick Facts

National Two Day Weather Forecast


E-mail the Montague Weather Forecast

Voice your opinion or tell us about page issues...